DUCHIFAT-1

Last updated on Tue Jul 01 2025 00:03:06 GMT+0000 (Coordinated Universal Time)

1 40021U 14033M 25181.59879219 .00014864 00000+0 52559-3 0 9996 2 40021 98.0942 197.7731 0007209 233.3511 126.7065 15.29271442601531
UTC large
Height (km)
Speed (km/s)
/
Latitude / Longitude
Inclination (degrees)
Orbital Period (minutes)
Azimuth
Elevation
Range (km)
Doppler Factor

Next 0 passes for location: London (51.5072 / 0.1276)

Sorry there are no passes over London.